Volver al catálogo

INSAT 2R

ARABSAT 1C

ActivoComunicacionesGEO
NORAD 21894·PAYLOAD·🇮🇳 India

Lanzado Feb 26, 1992 desde Guiana Space Centre

Loading…

TLE

ActualizadoSource: Space-Track

Época: Sep 13, 2026, 18:53 UTC

1 21894U 92010B   26256.78725175 -.00000097  00000-0  00000-0 0  9996
2 21894  14.4205  10.9837 0029272 275.3033  93.0587  0.98682846125129

Sigue INSAT 2R en tiempo real con AllMySat

Download on the App Store